ISS (ZARYA) 1 25544U 98067A 26247.07916240 .00003366 00000+0 69282-4 0 9998 2 25544 51.6313 269.6269 0005012 105.0359 255.1184 15.48983228583981 POISK 1 36086U 09060A 26247.07916240 .00003366 00000+0 69282-4 0 9996 2 36086 51.6313 269.6269 0005012 105.0359 255.1184 15.48983228584727 CSS (TIANHE) 1 48274U 21035A 26247.14777303 .00012569 00000+0 15751-3 0 9993 2 48274 41.4678 202.6558 0002229 256.7569 103.3021 15.59562238305497 ISS (NAUKA) 1 49044U 21066A 26247.07916240 .00003366 00000+0 69282-4 0 9994 2 49044 51.6313 269.6269 0005012 105.0359 255.1184 15.48983228584769 FREGAT DEB 1 49271U 11037PF 26247.01476509 .00015030 00000+0 21890-1 0 9997 2 49271 51.6391 124.5640 0934907 97.0641 273.7322 12.44081723234851 CSS (WENTIAN) 1 53239U 22085A 26246.95566175 .00012780 00000+0 16010-3 0 9991 2 53239 41.4678 203.8227 0002199 256.7093 103.3500 15.59557627288238 CSS (MENGTIAN) 1 54216U 22143A 26247.14777303 .00012569 00000+0 15751-3 0 9997 2 54216 41.4678 202.6558 0002229 256.7569 103.3021 15.59562238306121 HRC MONOBLOCK CAMERA 1 66052U 98067XR 26246.20760799 .00146604 18927-4 48842-3 0 9990 2 66052 51.6165 234.2883 0005775 66.2966 293.8645 15.89958373 50341 SZ-21 MODULE 1 66515U 25246C 26246.84813584 .00051847 00000+0 22445-3 0 9997 2 66515 41.4690 174.8200 0011120 229.2990 130.6892 15.83919313 46180 DUPLEX 1 66906U 98067XS 26246.31554735 .00036045 00000+0 31527-3 0 9998 2 66906 51.6245 253.2234 0004389 86.8444 273.3054 15.68542548 42896 KNACKSAT-2 1 67683U 98067XZ 26246.51656084 .00042884 00000+0 38997-3 0 9999 2 67683 51.6254 258.3445 0007537 115.8283 244.3491 15.67481086 32532 GXIBA-1 1 67685U 98067YB 26246.20758363 .00060707 00000+0 47651-3 0 9991 2 67685 51.6230 257.7527 0008298 109.7473 250.4420 15.70898230 32515 UITMSAT-2 1 67686U 98067YC 26246.26188265 .00131969 00000+0 68650-3 0 9997 2 67686 51.6217 252.8233 0008094 75.4560 284.7339 15.79998355 32585 LEOPARD 1 67687U 98067YD 26246.51243851 .00070522 00000+0 54716-3 0 9994 2 67687 51.6249 256.8244 0007955 80.9822 279.2075 15.71118045 32470 HMU-SAT2 1 67688U 98067YE 26246.32446296 .00087963 00000+0 56880-3 0 9993 2 67688 51.6238 254.7840 0007723 78.0166 282.1699 15.75294138 32488 CREW DRAGON 12 1 67796U 26031A 26246.56303513 .00003925 00000+0 79431-4 0 9999 2 67796 51.6315 272.1807 0005016 103.2669 256.8879 15.48980167584724 PROGRESS-MS 33 1 68319U 26058A 26247.07916240 .00003366 00000+0 69282-4 0 9996 2 68319 51.6313 269.6269 0005012 105.0359 255.1184 15.48983228584888 CYGNUS NG-24 1 68689U 26079A 26246.56303513 .00003925 00000+0 79431-4 0 9993 2 68689 51.6315 272.1807 0005016 103.2669 256.8879 15.48980167584849 PROGRESS-MS 34 1 68837U 26093A 26246.56303513 .00003925 00000+0 79431-4 0 9994 2 68837 51.6315 272.1807 0005016 103.2669 256.8879 15.48980167584888 TIANZHOU-10 1 69049U 26102A 26246.95566175 .00012780 00000+0 16010-3 0 9991 2 69049 41.4678 203.8227 0002199 256.7093 103.3500 15.59557627306000 SHENZHOU-23 (SZ-23) 1 69180U 26113A 26246.95566175 .00012780 00000+0 16010-3 0 9999 2 69180 41.4678 203.8227 0002199 256.7093 103.3500 15.59557627305656